Simultaneous Nadir Overpasses (SNOs) Predictions

Prediction of SNOs between AQUA and METOP-A Satellite Orbit:

Table of predicted SNOs for the next 14.0 days since TLE Epoch: 6/10/2015
Index Date (AQUA) Time (AQUA) Lat,Lon (AQUA) SZA (AQUA ) Date (METOP-A) Time (METOP-A) Lat,Lon (METOP-A) SZA (METOP-A ) Distance(km) Time Diff (sec)
1 06/11/2015 17:22:52 -73.55, 94.28 129.57 06/11/2015 17:21:42 -73.52, 92.87 129.54 44.50 70
2 06/11/2015 18:12:26 73.93, -98.92 50.84 06/11/2015 18:12:13 73.92, -98.86 50.83 2.48 13
3 06/11/2015 19:01:52 -73.96, 68.66 129.14 06/11/2015 19:02:53 -73.99, 68.65 129.11 3.64 61
4 06/14/2015 12:57:10 -73.77, 160.25 129.50 06/14/2015 12:55:57 -73.72, 159.74 129.52 16.90 73
5 06/14/2015 13:46:40 73.89, -32.39 50.64 06/14/2015 13:46:33 73.91, -32.47 50.66 3.07 7
6 06/14/2015 14:36:07 -73.97, 135.08 129.28 06/14/2015 14:37:13 -73.99, 135.05 129.27 2.28 66
7 06/17/2015 08:31:26 -73.87,-133.54 129.50 06/17/2015 08:30:14 -73.85,-133.53 129.50 1.59 72
8 06/17/2015 09:20:55 73.94, 33.93 50.59 06/17/2015 09:20:52 73.95, 34.03 50.59 3.07 3
9 06/17/2015 10:10:21 -73.97,-158.48 129.39 06/17/2015 10:11:33 -73.98,-158.57 129.39 2.73 72
10 06/20/2015 04:05:39 -73.86, -67.07 129.56 06/20/2015 04:04:33 -73.88, -67.04 129.52 3.33 66
11 06/20/2015 04:55:08 73.93, 100.39 50.53 06/20/2015 04:55:12 73.92, 100.38 50.52 1.40 4
12 06/20/2015 05:44:37 -74.11, -92.37 129.29 06/20/2015 05:45:49 -74.16, -91.72 129.27 20.34 72
13 06/22/2015 23:39:51 -73.88, -0.69 129.53 06/22/2015 23:38:52 -73.86, -0.70 129.54 2.93 59
14 06/23/2015 00:29:19 73.91, 166.88 50.51 06/23/2015 00:29:30 73.94, 166.84 50.54 3.31 11




NCC Satellite Simultaneous Nadir Overpasses (SNOs) Prediction Service
